Year,Month,Day,Hour,Minute,Value (Times are PST for temperature in C)
2024,04,18,00,00,4.60
2024,04,18,00,01,4.60
2024,04,18,00,02,4.60
2024,04,18,00,03,4.60
2024,04,18,00,04,4.60
2024,04,18,00,05,4.60
2024,04,18,00,06,4.60
2024,04,18,00,07,4.60
2024,04,18,00,08,4.60
2024,04,18,00,09,4.60
2024,04,18,00,10,4.60
2024,04,18,00,11,4.60
2024,04,18,00,12,4.60
2024,04,18,00,13,4.60
2024,04,18,00,14,4.60
2024,04,18,00,15,4.60
2024,04,18,00,16,4.60
2024,04,18,00,17,4.60
2024,04,18,00,18,4.60
2024,04,18,00,19,4.60
2024,04,18,00,20,4.60
2024,04,18,00,21,4.60
2024,04,18,00,22,4.60
2024,04,18,00,23,4.60
2024,04,18,00,24,4.60
2024,04,18,00,25,4.60
2024,04,18,00,26,4.50
2024,04,18,00,27,4.50
2024,04,18,00,28,4.50
2024,04,18,00,29,4.40
2024,04,18,00,30,4.40
2024,04,18,00,31,4.40
2024,04,18,00,32,4.40
2024,04,18,00,33,4.40
2024,04,18,00,34,4.50
2024,04,18,00,35,4.50
2024,04,18,00,36,4.50
2024,04,18,00,37,4.50
2024,04,18,00,38,4.50
2024,04,18,00,39,4.40
2024,04,18,00,40,4.40
2024,04,18,00,41,4.40
2024,04,18,00,42,4.40
2024,04,18,00,43,4.30
2024,04,18,00,44,4.30
2024,04,18,00,45,4.30
2024,04,18,00,46,4.20
2024,04,18,00,47,4.20
2024,04,18,00,48,4.20
2024,04,18,00,49,4.10
2024,04,18,00,50,4.10
2024,04,18,00,51,4.10
2024,04,18,00,52,4.00
2024,04,18,00,53,4.00
2024,04,18,00,54,4.00
2024,04,18,00,55,4.00
2024,04,18,00,56,4.10
2024,04,18,00,57,4.10
2024,04,18,00,58,4.10
2024,04,18,00,59,4.10
2024,04,18,01,00,4.10
2024,04,18,01,01,4.20
2024,04,18,01,02,4.20
2024,04,18,01,03,4.30
2024,04,18,01,04,4.30
2024,04,18,01,05,4.30
2024,04,18,01,06,4.30
2024,04,18,01,07,4.30
2024,04,18,01,08,4.30
2024,04,18,01,09,4.30
2024,04,18,01,10,4.30
2024,04,18,01,11,4.20
2024,04,18,01,12,4.20
2024,04,18,01,13,4.10
2024,04,18,01,14,4.10
2024,04,18,01,15,4.10
2024,04,18,01,16,4.10
2024,04,18,01,17,4.00
2024,04,18,01,18,4.00
2024,04,18,01,19,4.00
2024,04,18,01,20,4.00
2024,04,18,01,21,4.10
2024,04,18,01,22,4.10
2024,04,18,01,23,4.10
2024,04,18,01,24,4.10
2024,04,18,01,25,4.00
2024,04,18,01,26,4.00
2024,04,18,01,27,4.00
2024,04,18,01,28,3.90
2024,04,18,01,29,3.90
2024,04,18,01,30,3.90
2024,04,18,01,31,3.90
2024,04,18,01,32,3.90
2024,04,18,01,33,3.90
2024,04,18,01,34,3.90
2024,04,18,01,35,3.90
2024,04,18,01,36,3.90
2024,04,18,01,37,4.00
2024,04,18,01,38,4.00
2024,04,18,01,39,4.00
2024,04,18,01,40,4.10
2024,04,18,01,41,4.10
2024,04,18,01,42,4.10
2024,04,18,01,43,4.20
2024,04,18,01,44,4.20
2024,04,18,01,45,4.20
2024,04,18,01,46,4.20
2024,04,18,01,47,4.20
2024,04,18,01,48,4.30
2024,04,18,01,49,4.40
2024,04,18,01,50,4.40
2024,04,18,01,51,4.60
2024,04,18,01,52,4.70
2024,04,18,01,53,4.70
2024,04,18,01,54,4.80
2024,04,18,01,55,4.90
2024,04,18,01,56,5.00
2024,04,18,01,57,5.10
2024,04,18,01,58,5.20
2024,04,18,01,59,5.20
2024,04,18,02,00,5.30
2024,04,18,02,01,5.30
2024,04,18,02,02,5.30
2024,04,18,02,03,5.30
2024,04,18,02,04,5.40
2024,04,18,02,05,5.40
2024,04,18,02,06,5.40
2024,04,18,02,07,5.40
2024,04,18,02,08,5.40
2024,04,18,02,09,5.40
2024,04,18,02,10,5.40
2024,04,18,02,11,5.40
2024,04,18,02,12,5.40
2024,04,18,02,13,5.40
2024,04,18,02,14,5.40
2024,04,18,02,15,5.50
2024,04,18,02,16,5.50
2024,04,18,02,17,5.50
2024,04,18,02,18,5.40
2024,04,18,02,19,5.40
2024,04,18,02,20,5.40
2024,04,18,02,21,5.40
2024,04,18,02,22,5.40
2024,04,18,02,23,5.40
2024,04,18,02,24,5.30
2024,04,18,02,25,5.30
2024,04,18,02,26,5.30
2024,04,18,02,27,5.30
2024,04,18,02,28,5.30
2024,04,18,02,29,5.30
2024,04,18,02,30,5.30
2024,04,18,02,31,5.30
2024,04,18,02,32,5.40
2024,04,18,02,33,5.40
2024,04,18,02,34,5.40
2024,04,18,02,35,5.40
2024,04,18,02,36,5.40
2024,04,18,02,37,5.40
2024,04,18,02,38,5.40
2024,04,18,02,39,5.40
2024,04,18,02,40,5.40
2024,04,18,02,41,5.50
2024,04,18,02,42,5.50
2024,04,18,02,43,5.50
2024,04,18,02,44,5.50
2024,04,18,02,45,5.50
2024,04,18,02,46,5.50
2024,04,18,02,47,5.50
2024,04,18,02,48,5.50
2024,04,18,02,49,5.50
2024,04,18,02,50,5.50
2024,04,18,02,51,5.50
2024,04,18,02,52,5.40
2024,04,18,02,53,5.40
2024,04,18,02,54,5.40
2024,04,18,02,55,5.40
2024,04,18,02,56,5.50
2024,04,18,02,57,5.50
2024,04,18,02,58,5.40
2024,04,18,02,59,5.40
2024,04,18,03,00,5.40
2024,04,18,03,01,5.40
2024,04,18,03,02,5.40
2024,04,18,03,03,5.40
2024,04,18,03,04,5.40
2024,04,18,03,05,5.30
2024,04,18,03,06,5.30
2024,04,18,03,07,5.30
2024,04,18,03,08,5.30
2024,04,18,03,09,5.30
2024,04,18,03,10,5.30
2024,04,18,03,11,5.30
2024,04,18,03,12,5.30
2024,04,18,03,13,5.20
2024,04,18,03,14,5.20
2024,04,18,03,15,5.20
2024,04,18,03,16,5.20
2024,04,18,03,17,5.20
2024,04,18,03,18,5.20
2024,04,18,03,19,5.10
2024,04,18,03,20,5.10
2024,04,18,03,21,5.10
2024,04,18,03,22,5.10
2024,04,18,03,23,5.10
2024,04,18,03,24,5.10
2024,04,18,03,25,5.10
2024,04,18,03,26,5.10
2024,04,18,03,27,5.10
2024,04,18,03,28,5.10
2024,04,18,03,29,5.10
2024,04,18,03,30,5.00
2024,04,18,03,31,5.00
2024,04,18,03,32,5.00
2024,04,18,03,33,5.00
2024,04,18,03,34,5.00
2024,04,18,03,35,5.00
2024,04,18,03,36,5.00
2024,04,18,03,37,5.00
2024,04,18,03,38,5.00
2024,04,18,03,39,5.00
2024,04,18,03,40,5.00
2024,04,18,03,41,5.00
2024,04,18,03,42,4.90
2024,04,18,03,43,4.90
2024,04,18,03,44,4.90
2024,04,18,03,45,4.90
2024,04,18,03,46,4.90
2024,04,18,03,47,4.90
2024,04,18,03,48,4.90
2024,04,18,03,49,4.80
2024,04,18,03,50,4.80
2024,04,18,03,51,4.80
2024,04,18,03,52,4.80
2024,04,18,03,53,4.80
2024,04,18,03,54,4.80
2024,04,18,03,55,4.80
2024,04,18,03,56,4.80
2024,04,18,03,57,4.90
2024,04,18,03,58,4.90
2024,04,18,03,59,4.90
2024,04,18,04,00,4.90
2024,04,18,04,01,4.90
2024,04,18,04,02,4.90
2024,04,18,04,03,4.90
2024,04,18,04,04,4.90
2024,04,18,04,05,4.90
2024,04,18,04,06,4.80
2024,04,18,04,07,4.80
2024,04,18,04,08,4.80
2024,04,18,04,09,4.80
2024,04,18,04,10,4.80
2024,04,18,04,11,4.80
2024,04,18,04,12,4.80
2024,04,18,04,13,4.80
2024,04,18,04,14,4.80
2024,04,18,04,15,4.80
2024,04,18,04,16,4.80
2024,04,18,04,17,4.80
2024,04,18,04,18,4.80
2024,04,18,04,19,4.80
2024,04,18,04,20,4.80
2024,04,18,04,21,4.80
2024,04,18,04,22,4.90
2024,04,18,04,23,4.90
2024,04,18,04,24,4.90
2024,04,18,04,25,4.90
2024,04,18,04,26,4.90
2024,04,18,04,27,4.90
2024,04,18,04,28,4.90
2024,04,18,04,29,4.90
2024,04,18,04,30,4.90
2024,04,18,04,31,4.90
2024,04,18,04,32,4.90
2024,04,18,04,33,4.90
2024,04,18,04,34,4.90
2024,04,18,04,35,4.90
2024,04,18,04,36,4.90
2024,04,18,04,37,4.80
2024,04,18,04,38,4.80
2024,04,18,04,39,4.80
2024,04,18,04,40,4.80
2024,04,18,04,41,4.80
2024,04,18,04,42,4.80
2024,04,18,04,43,4.70
2024,04,18,04,44,4.70
2024,04,18,04,45,4.70
2024,04,18,04,46,4.70
2024,04,18,04,47,4.70
2024,04,18,04,48,4.70
2024,04,18,04,49,4.70
2024,04,18,04,50,4.70
2024,04,18,04,51,4.70
2024,04,18,04,52,4.80
2024,04,18,04,53,4.80
2024,04,18,04,54,4.80
2024,04,18,04,55,4.80
2024,04,18,04,56,4.80
2024,04,18,04,57,4.80
2024,04,18,04,58,4.80
2024,04,18,04,59,4.80
2024,04,18,05,00,4.90
2024,04,18,05,01,4.90
2024,04,18,05,02,4.90
2024,04,18,05,03,4.90
2024,04,18,05,04,4.90
2024,04,18,05,05,4.90
2024,04,18,05,06,4.90
2024,04,18,05,07,4.90
2024,04,18,05,08,4.90
2024,04,18,05,09,4.90
2024,04,18,05,10,5.00
2024,04,18,05,11,5.00
2024,04,18,05,12,5.00
2024,04,18,05,13,5.00
2024,04,18,05,14,5.00
2024,04,18,05,15,5.00
2024,04,18,05,16,4.90
2024,04,18,05,17,5.00
2024,04,18,05,18,4.90
2024,04,18,05,19,4.90
2024,04,18,05,20,4.90
2024,04,18,05,21,4.90
2024,04,18,05,22,4.90
2024,04,18,05,23,4.90
2024,04,18,05,24,4.90
2024,04,18,05,25,4.90
2024,04,18,05,26,4.80
2024,04,18,05,27,4.80
2024,04,18,05,28,4.80
2024,04,18,05,29,4.70
2024,04,18,05,30,4.70
2024,04,18,05,31,4.70
2024,04,18,05,32,4.70
2024,04,18,05,33,4.70
2024,04,18,05,34,4.70
2024,04,18,05,35,4.70
2024,04,18,05,36,4.60
2024,04,18,05,37,4.60
2024,04,18,05,38,4.60
2024,04,18,05,39,4.60
2024,04,18,05,40,4.60
2024,04,18,05,41,4.60
2024,04,18,05,42,4.50
2024,04,18,05,43,4.50
2024,04,18,05,44,4.50
2024,04,18,05,45,4.50
2024,04,18,05,46,4.60
2024,04,18,05,47,4.60
2024,04,18,05,48,4.60
2024,04,18,05,49,4.60
2024,04,18,05,50,4.60
2024,04,18,05,51,4.70
2024,04,18,05,52,4.70
2024,04,18,05,53,4.70
2024,04,18,05,54,4.70
2024,04,18,05,55,4.80
2024,04,18,05,56,4.80
2024,04,18,05,57,4.80
2024,04,18,05,58,4.80
2024,04,18,05,59,4.80
2024,04,18,06,00,4.70
2024,04,18,06,01,4.70
2024,04,18,06,02,4.70
2024,04,18,06,03,4.70
2024,04,18,06,04,4.60
2024,04,18,06,05,4.60
2024,04,18,06,06,4.60
2024,04,18,06,07,4.60
2024,04,18,06,08,4.70
2024,04,18,06,09,4.70
2024,04,18,06,10,4.60
2024,04,18,06,11,4.60
2024,04,18,06,12,4.60
2024,04,18,06,13,4.60
2024,04,18,06,14,4.60
2024,04,18,06,15,4.60
2024,04,18,06,16,4.60
2024,04,18,06,17,4.70
2024,04,18,06,18,4.70
2024,04,18,06,19,4.60
2024,04,18,06,20,4.70
2024,04,18,06,21,4.70
2024,04,18,06,22,4.70
2024,04,18,06,23,4.70
2024,04,18,06,24,4.70
2024,04,18,06,25,4.70
2024,04,18,06,26,4.70
2024,04,18,06,27,4.70
2024,04,18,06,28,4.70
2024,04,18,06,29,4.70
2024,04,18,06,30,4.70
2024,04,18,06,31,4.70
2024,04,18,06,32,4.70
2024,04,18,06,33,4.70
2024,04,18,06,34,4.70
2024,04,18,06,35,4.70
2024,04,18,06,36,4.70
2024,04,18,06,37,4.70
2024,04,18,06,38,4.80
2024,04,18,06,39,4.80
2024,04,18,06,40,4.80
2024,04,18,06,41,4.80
2024,04,18,06,42,4.80
2024,04,18,06,43,4.80
2024,04,18,06,44,4.80
2024,04,18,06,45,4.80
2024,04,18,06,46,4.80
2024,04,18,06,47,4.90
2024,04,18,06,48,4.90
2024,04,18,06,49,4.90
2024,04,18,06,50,4.90
2024,04,18,06,51,4.90
2024,04,18,06,52,4.90
2024,04,18,06,53,5.00
2024,04,18,06,54,5.00
2024,04,18,06,55,5.00
2024,04,18,06,56,5.00
2024,04,18,06,57,5.10
2024,04,18,06,58,5.10
2024,04,18,06,59,5.10
2024,04,18,07,00,5.10
2024,04,18,07,01,5.10
2024,04,18,07,02,5.10
2024,04,18,07,03,5.10
2024,04,18,07,04,5.10
2024,04,18,07,05,5.10
2024,04,18,07,06,5.10
2024,04,18,07,07,5.10
2024,04,18,07,08,5.10
2024,04,18,07,09,5.10
2024,04,18,07,10,5.20
2024,04,18,07,11,5.20
2024,04,18,07,12,5.20
2024,04,18,07,13,5.20
2024,04,18,07,14,5.30
2024,04,18,07,15,5.30
2024,04,18,07,16,5.40
2024,04,18,07,17,5.40
2024,04,18,07,18,5.50
2024,04,18,07,19,5.50
2024,04,18,07,20,5.60
2024,04,18,07,21,5.60
2024,04,18,07,22,5.70
2024,04,18,07,23,5.70
2024,04,18,07,24,5.80
2024,04,18,07,25,5.80
2024,04,18,07,26,5.90
2024,04,18,07,27,6.00
2024,04,18,07,28,6.10
2024,04,18,07,29,6.20
2024,04,18,07,30,6.20
2024,04,18,07,31,6.30
2024,04,18,07,32,6.40
2024,04,18,07,33,6.50
2024,04,18,07,34,6.60
2024,04,18,07,35,6.60
2024,04,18,07,36,6.70
2024,04,18,07,37,6.70
2024,04,18,07,38,6.80
2024,04,18,07,39,6.90
2024,04,18,07,40,6.90
2024,04,18,07,41,7.00
2024,04,18,07,42,7.10
2024,04,18,07,43,7.10
2024,04,18,07,44,7.20
2024,04,18,07,45,7.20
2024,04,18,07,46,7.20
2024,04,18,07,47,7.30
2024,04,18,07,48,7.30
2024,04,18,07,49,7.40
2024,04,18,07,50,7.40
2024,04,18,07,51,7.50
2024,04,18,07,52,7.60
2024,04,18,07,53,7.60
2024,04,18,07,54,7.70
2024,04,18,07,55,7.80
2024,04,18,07,56,7.90
2024,04,18,07,57,7.90
2024,04,18,07,58,8.00
2024,04,18,07,59,8.00
2024,04,18,08,00,8.10
2024,04,18,08,01,8.10
2024,04,18,08,02,8.20
2024,04,18,08,03,8.20
2024,04,18,08,04,8.20
2024,04,18,08,05,8.30
2024,04,18,08,06,8.30
2024,04,18,08,07,8.40
2024,04,18,08,08,8.50
2024,04,18,08,09,8.50
2024,04,18,08,10,8.60
2024,04,18,08,11,8.60
2024,04,18,08,12,8.60
2024,04,18,08,13,8.60
2024,04,18,08,14,8.70
2024,04,18,08,15,8.70
2024,04,18,08,16,8.70
2024,04,18,08,17,8.80
2024,04,18,08,18,8.80
2024,04,18,08,19,8.80
2024,04,18,08,20,8.80
2024,04,18,08,21,8.90
2024,04,18,08,22,9.00
2024,04,18,08,23,9.00
2024,04,18,08,24,9.10
2024,04,18,08,25,9.10
2024,04,18,08,26,9.10
2024,04,18,08,27,9.20
2024,04,18,08,28,9.20
2024,04,18,08,29,9.20
2024,04,18,08,30,9.20
2024,04,18,08,31,9.20
2024,04,18,08,32,9.20
2024,04,18,08,33,9.20
2024,04,18,08,34,9.30
2024,04,18,08,35,9.30
2024,04,18,08,36,9.30
2024,04,18,08,37,9.40
2024,04,18,08,38,9.40
2024,04,18,08,39,9.40
2024,04,18,08,40,9.40
2024,04,18,08,41,9.40
2024,04,18,08,42,9.50
2024,04,18,08,43,9.50
2024,04,18,08,44,9.60
2024,04,18,08,45,9.70
2024,04,18,08,46,9.70
2024,04,18,08,47,9.80
2024,04,18,08,48,9.80
2024,04,18,08,49,9.80
2024,04,18,08,50,9.80
2024,04,18,08,51,9.80
2024,04,18,08,52,9.80
2024,04,18,08,53,9.90
2024,04,18,08,54,10.00
2024,04,18,08,55,10.00
2024,04,18,08,56,10.10
2024,04,18,08,57,10.10
2024,04,18,08,58,10.10
2024,04,18,08,59,10.20
2024,04,18,09,00,10.30
2024,04,18,09,01,10.40
2024,04,18,09,02,10.50
2024,04,18,09,03,10.60
2024,04,18,09,04,10.60
2024,04,18,09,05,10.70
2024,04,18,09,06,10.70
2024,04,18,09,07,10.70
2024,04,18,09,08,10.70
2024,04,18,09,09,10.70
2024,04,18,09,10,10.60
2024,04,18,09,11,10.60
2024,04,18,09,12,10.60
2024,04,18,09,13,10.60
2024,04,18,09,14,10.60
2024,04,18,09,15,10.60
2024,04,18,09,16,10.50
2024,04,18,09,17,10.50
2024,04,18,09,18,10.50
2024,04,18,09,19,10.60
2024,04,18,09,20,10.60
2024,04,18,09,21,10.70
2024,04,18,09,22,10.70
2024,04,18,09,23,10.70
2024,04,18,09,24,10.70
2024,04,18,09,25,10.70
2024,04,18,09,26,10.80
2024,04,18,09,27,10.90
2024,04,18,09,28,10.90
2024,04,18,09,29,11.00
2024,04,18,09,30,10.90
2024,04,18,09,31,10.90
2024,04,18,09,32,10.80
2024,04,18,09,33,10.80
2024,04,18,09,34,10.80
2024,04,18,09,35,10.80
2024,04,18,09,36,10.80
2024,04,18,09,37,10.90
2024,04,18,09,38,11.00
2024,04,18,09,39,11.10
2024,04,18,09,40,11.10
2024,04,18,09,41,11.10
2024,04,18,09,42,11.10
2024,04,18,09,43,11.00
2024,04,18,09,44,11.00
2024,04,18,09,45,10.90
2024,04,18,09,46,10.90
2024,04,18,09,47,10.90
2024,04,18,09,48,10.90
2024,04,18,09,49,10.90
2024,04,18,09,50,10.90
2024,04,18,09,51,11.00
2024,04,18,09,52,11.10
2024,04,18,09,53,11.20
2024,04,18,09,54,11.20
2024,04,18,09,55,11.20
2024,04,18,09,56,11.20
2024,04,18,09,57,11.20
2024,04,18,09,58,11.20
2024,04,18,09,59,11.20
2024,04,18,10,00,11.20
2024,04,18,10,01,11.20
2024,04,18,10,02,11.30
2024,04,18,10,03,11.30
2024,04,18,10,04,11.30
2024,04,18,10,05,11.30
2024,04,18,10,06,11.30
2024,04,18,10,07,11.30
2024,04,18,10,08,11.30
2024,04,18,10,09,11.40
2024,04,18,10,10,11.40
2024,04,18,10,11,11.50
2024,04,18,10,12,11.60
2024,04,18,10,13,11.70
2024,04,18,10,14,11.80
2024,04,18,10,15,11.90
2024,04,18,10,16,12.00
2024,04,18,10,17,12.10
2024,04,18,10,18,12.20
2024,04,18,10,19,12.20
2024,04,18,10,20,12.20
2024,04,18,10,21,12.10
2024,04,18,10,22,12.10
2024,04,18,10,23,12.00
2024,04,18,10,24,12.00
2024,04,18,10,25,11.90
2024,04,18,10,26,11.90
2024,04,18,10,27,11.90
2024,04,18,10,28,11.90
2024,04,18,10,29,11.90
2024,04,18,10,30,12.00
2024,04,18,10,31,12.00
2024,04,18,10,32,12.00
2024,04,18,10,33,12.00
2024,04,18,10,34,12.00
2024,04,18,10,35,12.00
2024,04,18,10,36,12.00
2024,04,18,10,37,12.10
2024,04,18,10,38,12.10
2024,04,18,10,39,12.20
2024,04,18,10,40,12.20
2024,04,18,10,41,12.20
2024,04,18,10,42,12.30
2024,04,18,10,43,12.40
2024,04,18,10,44,12.50
2024,04,18,10,45,12.70
2024,04,18,10,46,12.90
2024,04,18,10,47,13.00
2024,04,18,10,48,13.00
2024,04,18,10,49,13.00
2024,04,18,10,50,13.00
2024,04,18,10,51,12.90
2024,04,18,10,52,12.80
2024,04,18,10,53,12.70
2024,04,18,10,54,12.70
2024,04,18,10,55,12.70
2024,04,18,10,56,12.60
2024,04,18,10,57,12.70
2024,04,18,10,58,12.60
2024,04,18,10,59,12.60
2024,04,18,11,00,12.60
2024,04,18,11,01,12.60
2024,04,18,11,02,12.60
2024,04,18,11,03,12.70
2024,04,18,11,04,12.70
2024,04,18,11,05,12.70
2024,04,18,11,06,12.70
2024,04,18,11,07,12.80
2024,04,18,11,08,12.90
2024,04,18,11,09,13.10
2024,04,18,11,10,13.20
2024,04,18,11,11,13.30
2024,04,18,11,12,13.40
2024,04,18,11,13,13.40
2024,04,18,11,14,13.50
2024,04,18,11,15,13.60
2024,04,18,11,16,13.60
2024,04,18,11,17,13.70
2024,04,18,11,18,13.80
2024,04,18,11,19,14.00
2024,04,18,11,20,14.00
2024,04,18,11,21,14.10
2024,04,18,11,22,14.10
2024,04,18,11,23,14.10
2024,04,18,11,24,13.90
2024,04,18,11,25,13.80
2024,04,18,11,26,13.80
2024,04,18,11,27,13.70
2024,04,18,11,28,13.70
2024,04,18,11,29,13.70
2024,04,18,11,30,13.70
2024,04,18,11,31,13.70
2024,04,18,11,32,13.70
2024,04,18,11,33,13.70
2024,04,18,11,34,13.70
2024,04,18,11,35,13.80
2024,04,18,11,36,13.90
2024,04,18,11,37,13.80
2024,04,18,11,38,13.80
2024,04,18,11,39,13.80
2024,04,18,11,40,13.80
2024,04,18,11,41,13.80
2024,04,18,11,42,13.70
2024,04,18,11,43,13.80
2024,04,18,11,44,13.80
2024,04,18,11,45,13.80
2024,04,18,11,46,13.80
2024,04,18,11,47,13.80
2024,04,18,11,48,13.80
2024,04,18,11,49,13.90
2024,04,18,11,50,14.00
2024,04,18,11,51,14.00
2024,04,18,11,52,13.90
2024,04,18,11,53,13.80
2024,04,18,11,54,13.80
2024,04,18,11,55,13.90
2024,04,18,11,56,13.90
2024,04,18,11,57,14.00
2024,04,18,11,58,14.00
2024,04,18,11,59,14.00
2024,04,18,12,00,14.00
2024,04,18,12,01,14.10
2024,04,18,12,02,14.20
2024,04,18,12,03,14.10
2024,04,18,12,04,14.10
2024,04,18,12,05,14.00
2024,04,18,12,06,14.00
2024,04,18,12,07,14.10
2024,04,18,12,08,14.10
2024,04,18,12,09,14.10
2024,04,18,12,10,14.10
2024,04,18,12,11,14.10
2024,04,18,12,12,14.10
2024,04,18,12,13,14.10
2024,04,18,12,14,14.10
2024,04,18,12,15,14.10
2024,04,18,12,16,14.00
2024,04,18,12,17,14.00
2024,04,18,12,18,14.10
2024,04,18,12,19,14.30
2024,04,18,12,20,14.40
2024,04,18,12,21,14.30
2024,04,18,12,22,14.30
2024,04,18,12,23,14.40
2024,04,18,12,24,14.60
2024,04,18,12,25,14.60
2024,04,18,12,26,14.60
2024,04,18,12,27,14.60
2024,04,18,12,28,14.70
2024,04,18,12,29,14.70
2024,04,18,12,30,14.50
2024,04,18,12,31,14.30
2024,04,18,12,32,14.20
2024,04,18,12,33,14.20
2024,04,18,12,34,14.30
2024,04,18,12,35,14.50
2024,04,18,12,36,14.50
2024,04,18,12,37,14.60
2024,04,18,12,38,14.70
2024,04,18,12,39,14.70
2024,04,18,12,40,14.70
2024,04,18,12,41,14.70
2024,04,18,12,42,14.70
2024,04,18,12,43,14.80
2024,04,18,12,44,14.80
2024,04,18,12,45,14.80
2024,04,18,12,46,14.90
2024,04,18,12,47,14.80
2024,04,18,12,48,14.80
2024,04,18,12,49,14.90
2024,04,18,12,50,14.90
2024,04,18,12,51,15.00
2024,04,18,12,52,15.00
2024,04,18,12,53,15.00
2024,04,18,12,54,14.90
2024,04,18,12,55,14.80
2024,04,18,12,56,14.70
2024,04,18,12,57,14.70
2024,04,18,12,58,14.70
2024,04,18,12,59,14.80
2024,04,18,13,00,14.80
2024,04,18,13,01,14.90
2024,04,18,13,02,14.90
2024,04,18,13,03,14.80
2024,04,18,13,04,14.70
2024,04,18,13,05,14.70
2024,04,18,13,06,14.70
2024,04,18,13,07,14.60
2024,04,18,13,08,14.70
2024,04,18,13,09,14.70
2024,04,18,13,10,14.60
2024,04,18,13,11,14.50
2024,04,18,13,12,14.50
2024,04,18,13,13,14.40
2024,04,18,13,14,14.50
2024,04,18,13,15,14.50
2024,04,18,13,16,14.50
2024,04,18,13,17,14.50
2024,04,18,13,18,14.50
2024,04,18,13,19,14.40
2024,04,18,13,20,14.40
2024,04,18,13,21,14.40
2024,04,18,13,22,14.60
2024,04,18,13,23,14.70
2024,04,18,13,24,14.80
2024,04,18,13,25,14.90
2024,04,18,13,26,14.90
2024,04,18,13,27,14.90
2024,04,18,13,28,14.80
2024,04,18,13,29,14.80
2024,04,18,13,30,14.80
2024,04,18,13,31,14.80
2024,04,18,13,32,14.80
2024,04,18,13,33,14.80
2024,04,18,13,34,14.90
2024,04,18,13,35,15.00
2024,04,18,13,36,15.00
2024,04,18,13,37,15.20
2024,04,18,13,38,15.30
2024,04,18,13,39,15.30
2024,04,18,13,40,15.40
2024,04,18,13,41,15.40
2024,04,18,13,42,15.40
2024,04,18,13,43,15.50
2024,04,18,13,44,15.50
2024,04,18,13,45,15.50
2024,04,18,13,46,15.50
2024,04,18,13,47,15.40
2024,04,18,13,48,15.40
2024,04,18,13,49,15.40
2024,04,18,13,50,15.30
2024,04,18,13,51,15.30
2024,04,18,13,52,15.40
2024,04,18,13,53,15.60
2024,04,18,13,54,15.60
2024,04,18,13,55,15.70
2024,04,18,13,56,15.70
2024,04,18,13,57,15.60
2024,04,18,13,58,15.50
2024,04,18,13,59,15.40
2024,04,18,14,00,15.40
2024,04,18,14,01,15.30
2024,04,18,14,02,15.30
2024,04,18,14,03,15.40
2024,04,18,14,04,15.40
2024,04,18,14,05,15.40
2024,04,18,14,06,15.40
2024,04,18,14,07,15.40
2024,04,18,14,08,15.40
2024,04,18,14,09,15.60
2024,04,18,14,10,15.70
2024,04,18,14,11,15.70
2024,04,18,14,12,15.80
2024,04,18,14,13,15.70
2024,04,18,14,14,15.60
2024,04,18,14,15,15.60
2024,04,18,14,16,15.60
2024,04,18,14,17,15.60
2024,04,18,14,18,15.50
2024,04,18,14,19,15.50
2024,04,18,14,20,15.60
2024,04,18,14,21,15.60
2024,04,18,14,22,15.70
2024,04,18,14,23,15.90
2024,04,18,14,24,15.90
2024,04,18,14,25,15.90
2024,04,18,14,26,15.90
2024,04,18,14,27,16.00
2024,04,18,14,28,16.10
2024,04,18,14,29,16.10
2024,04,18,14,30,16.20
2024,04,18,14,31,16.30
2024,04,18,14,32,16.20
2024,04,18,14,33,16.20
2024,04,18,14,34,16.20
2024,04,18,14,35,16.10
2024,04,18,14,36,15.90
2024,04,18,14,37,15.90
2024,04,18,14,38,15.90
2024,04,18,14,39,15.90
2024,04,18,14,40,15.80
2024,04,18,14,41,15.80
2024,04,18,14,42,15.90
2024,04,18,14,43,16.00
2024,04,18,14,44,16.10
2024,04,18,14,45,16.10
2024,04,18,14,46,16.10
2024,04,18,14,47,16.10
2024,04,18,14,48,16.10
2024,04,18,14,49,16.10
2024,04,18,14,50,16.20
2024,04,18,14,51,16.20
2024,04,18,14,52,16.20
2024,04,18,14,53,16.20
2024,04,18,14,54,16.20
2024,04,18,14,55,16.10
2024,04,18,14,56,16.20
2024,04,18,14,57,16.20
2024,04,18,14,58,16.30
2024,04,18,14,59,16.40
2024,04,18,15,00,16.40
2024,04,18,15,01,16.40
2024,04,18,15,02,16.40
2024,04,18,15,03,16.30
2024,04,18,15,04,16.30
2024,04,18,15,05,16.30
2024,04,18,15,06,16.30
2024,04,18,15,07,16.30
2024,04,18,15,08,16.30
2024,04,18,15,09,16.30
2024,04,18,15,10,16.40
2024,04,18,15,11,16.40
2024,04,18,15,12,16.40
2024,04,18,15,13,16.20
2024,04,18,15,14,16.10
2024,04,18,15,15,16.10
2024,04,18,15,16,16.10
2024,04,18,15,17,16.10
2024,04,18,15,18,16.10
2024,04,18,15,19,16.00
2024,04,18,15,20,15.90
2024,04,18,15,21,15.90
2024,04,18,15,22,15.90
2024,04,18,15,23,16.00
2024,04,18,15,24,16.10
2024,04,18,15,25,16.20
2024,04,18,15,26,16.30
2024,04,18,15,27,16.30
2024,04,18,15,28,16.30
2024,04,18,15,29,16.30
2024,04,18,15,30,16.30
2024,04,18,15,31,16.40
2024,04,18,15,32,16.40
2024,04,18,15,33,16.50
2024,04,18,15,34,16.60
2024,04,18,15,35,16.60
2024,04,18,15,36,16.60
2024,04,18,15,37,16.70
2024,04,18,15,38,16.70
2024,04,18,15,39,16.60
2024,04,18,15,40,16.60
2024,04,18,15,41,16.60
2024,04,18,15,42,16.60
2024,04,18,15,43,16.60
2024,04,18,15,44,16.70
2024,04,18,15,45,16.70
2024,04,18,15,46,16.60
2024,04,18,15,47,16.60
2024,04,18,15,48,16.50
2024,04,18,15,49,16.50
2024,04,18,15,50,16.40
2024,04,18,15,51,16.50
2024,04,18,15,52,16.50
2024,04,18,15,53,16.60
2024,04,18,15,54,16.60
2024,04,18,15,55,16.60
2024,04,18,15,56,16.70
2024,04,18,15,57,16.70
2024,04,18,15,58,16.70
2024,04,18,15,59,16.60
2024,04,18,16,00,16.50
2024,04,18,16,01,16.40
2024,04,18,16,02,16.30
2024,04,18,16,03,16.30
2024,04,18,16,04,16.30
2024,04,18,16,05,16.40
2024,04,18,16,06,16.40
2024,04,18,16,07,16.40
2024,04,18,16,08,16.30
2024,04,18,16,09,16.30
2024,04,18,16,10,16.30
2024,04,18,16,11,16.30
2024,04,18,16,12,16.30
2024,04,18,16,13,16.40
2024,04,18,16,14,16.50
2024,04,18,16,15,16.50
2024,04,18,16,16,16.50
2024,04,18,16,17,16.50
2024,04,18,16,18,16.40
2024,04,18,16,19,16.40
2024,04,18,16,20,16.50
2024,04,18,16,21,16.50
2024,04,18,16,22,16.40
2024,04,18,16,23,16.40
2024,04,18,16,24,16.40
2024,04,18,16,25,16.40
2024,04,18,16,26,16.50
2024,04,18,16,27,16.50
2024,04,18,16,28,16.50
2024,04,18,16,29,16.50
2024,04,18,16,30,16.60
2024,04,18,16,31,16.60
2024,04,18,16,32,16.40
2024,04,18,16,33,16.30
2024,04,18,16,34,16.30
2024,04,18,16,35,16.30
2024,04,18,16,36,16.40
2024,04,18,16,37,16.40
2024,04,18,16,38,16.40
2024,04,18,16,39,16.50
2024,04,18,16,40,16.60
2024,04,18,16,41,16.60
2024,04,18,16,42,16.70
2024,04,18,16,43,16.70
2024,04,18,16,44,16.60
2024,04,18,16,45,16.60
2024,04,18,16,46,16.50
2024,04,18,16,47,16.40
2024,04,18,16,48,16.40
2024,04,18,16,49,16.50
2024,04,18,16,50,16.50
2024,04,18,16,51,16.50
2024,04,18,16,52,16.40
2024,04,18,16,53,16.50
2024,04,18,16,54,16.50
2024,04,18,16,55,16.60
2024,04,18,16,56,16.60
2024,04,18,16,57,16.60
2024,04,18,16,58,16.60
2024,04,18,16,59,16.60
2024,04,18,17,00,16.60
2024,04,18,17,01,16.60
2024,04,18,17,02,16.60
2024,04,18,17,03,16.60
2024,04,18,17,04,16.60
2024,04,18,17,05,16.60
2024,04,18,17,06,16.60
2024,04,18,17,07,16.60
2024,04,18,17,08,16.70
2024,04,18,17,09,16.60
2024,04,18,17,10,16.60
2024,04,18,17,11,16.60
2024,04,18,17,12,16.60
2024,04,18,17,13,16.50
2024,04,18,17,14,16.50
2024,04,18,17,15,16.50
2024,04,18,17,16,16.40
2024,04,18,17,17,16.40
2024,04,18,17,18,16.40
2024,04,18,17,19,16.50
2024,04,18,17,20,16.50
2024,04,18,17,21,16.40
2024,04,18,17,22,16.40
2024,04,18,17,23,16.40
2024,04,18,17,24,16.30
2024,04,18,17,25,16.30
2024,04,18,17,26,16.40
2024,04,18,17,27,16.30
2024,04,18,17,28,16.30
2024,04,18,17,29,16.40
2024,04,18,17,30,16.40
2024,04,18,17,31,16.50
2024,04,18,17,32,16.50
2024,04,18,17,33,16.60
2024,04,18,17,34,16.60
2024,04,18,17,35,16.60
2024,04,18,17,36,16.60
2024,04,18,17,37,16.60
2024,04,18,17,38,16.50
2024,04,18,17,39,16.40
2024,04,18,17,40,16.30
2024,04,18,17,41,16.30
2024,04,18,17,42,16.30